Regional Weather Roundup
Issued by NWS

Home | Current Version | Previous Version | Text Only | Print | Product List | Glossary Off
Versions: 1 2 3 4 5 6 7 8 9 10 11 12 13 14 15 16 17 18 19 20 21 22 23 24 25 26 27 28 29 30 31 32 33 34 35 36 37 38 39 40 41 42 43 44 45 46 47 48 49 50

000
ASUS43 KMPX 271501
RWRMN
WEATHER ROUNDUP FOR MINNESOTA
NATIONAL WEATHER SERVICE TWIN CITIES/CHANHASSEN MN
1000 AM CDT TUE JUN 27 2017


NOTE: "FAIR" INDICATES FEW OR NO CLOUDS BELOW 12,000 FEET WITH NO
SIGNIFICANT WEATHER AND/OR OBSTRUCTIONS TO VISIBILITY. N/A MEANS
CURRENT SKY AND/OR WEATHER CONDITIONS ARE NOT AVAILABLE.

MNZ060>063-068>070-271600-
   Twin Cities Metro

CITY           SKY/WX    TMP DP  RH WIND       PRES   REMARKS
TWIN CITIES    MOSUNNY   68  43  40 SW9       30.07F
ST PAUL        SUNNY     68  47  46 SW10      30.08F
CRYSTAL        SUNNY     68  41  37 SW9       30.06F
BLAINE         SUNNY     70  45  40 SW7       30.07F
LAKEVILLE      SUNNY     68  46  45 SW6       30.08F
EDEN PRAIRIE   SUNNY     68  48  48 S8        30.07F
SOUTH ST PAUL  SUNNY     69  45  41 W6        30.07F
LAKE ELMO      FAIR      68  46  45 SW7       30.09F
$$
MNZ001>005-007-008-013>017-022>024-027-028-271600-
   Northwest Minnesota

CITY           SKY/WX    TMP DP  RH WIND       PRES   REMARKS
BEMIDJI        SUNNY     66  44  45 S10       29.97F
HALLOCK        CLOUDY    66  46  48 S15       29.84F
ROSEAU         SUNNY     66  48  52 SW15      29.89F
WARROAD        MOSUNNY   64  50  59 SW10G17   29.91F
CROOKSTON      CLOUDY    66  46  48 S15       29.90F
FOSSTON        SUNNY     64  43  45 S18G24    29.94F
DETROIT LAKES  MOSUNNY   64  43  45 S14       29.97F
MOORHEAD       CLOUDY    66  43  42 S16G23    29.93F
PARK RAPIDS    MOSUNNY   68  41  37 SW14      29.99F
MAHNOMEN       FAIR      67  43  41 S20G26    29.94F
$$
MNZ006-009>011-018-025>026-271600-
   North Central Minnesota

CITY           SKY/WX    TMP DP  RH WIND       PRES   REMARKS
BAUDETTE       MOSUNNY   65  47  52 SW8       29.93F
FLAG ISLAND    PTSUNNY   64  46  52 SW10G20   29.88F
INTL FALLS     MOSUNNY   66  47  50 W8        29.95F
WASKISH        MOSUNNY   64  48  55 SW10G17   29.96F
BIG FORK       SUNNY     66  46  48 SW9       29.98F
LONGVILLE      SUNNY     66  46  48 S9        30.00F
GRAND RAPIDS   MOSUNNY   66  46  48 SW10      30.03F
CRANE LAKE     MOSUNNY   64  46  52 S6        29.99F
ORR            MOSUNNY   63  46  55 CALM      29.97F
COOK           MOSUNNY   63  48  59 SW5       30.00F
WALKER         FAIR      63  47  55 S6        29.99F
$$
MNZ012-019>021-037-271600-
   Northeast Minnesota

CITY           SKY/WX    TMP DP  RH WIND       PRES   REMARKS
DULUTH         SUNNY     67  47  48 W14G21    30.03F
ELY            MOSUNNY   64  45  48 SW6       30.00F
HIBBING        SUNNY     65  45  48 W9        30.01F
EVELETH        MOSUNNY   65  39  39 W8        30.03S
DULUTH HARBOR  MOSUNNY   70  52  52 SW8       30.03F
TWO HARBORS    PTSUNNY   70  54  56 W6        30.00F
SILVER BAY     MOSUNNY   70  46  43 SW5       29.99F
GRAND MARAIS     N/A     52  46  80 W9        29.98F
G MARAIS ARPRT SUNNY     64  45  48 W6        30.00F
$$
MNZ029>031-032-039>041-046>048-054>057-064-271600-
   West Central Minnesota

CITY           SKY/WX    TMP DP  RH WIND       PRES   REMARKS
FERGUS FALLS   CLOUDY    66  45  45 S15       29.94F
WHEATON        MOSUNNY   66  41  39 S15G21    29.97F
MORRIS         SUNNY     70  45  40 S15G25    29.98F
ALEXANDRIA     MOSUNNY   68  44  42 S15       30.02F
ELBOW LAKE     FAIR      65  45  47 S16       29.99F
WADENA         MOSUNNY   64  43  45 S16       30.00F
GLENWOOD       MOSUNNY   64  45  48 S14       30.03F
APPLETON       SUNNY     68  43  40 S10G20    29.99F
BENSON         SUNNY     70  45  40 SW14      30.02F
ORTONVILLE       N/A     70  45  40 S13G20    29.99F
MADISON        MOSUNNY   72  45  37 S17       29.99F
WILLMAR        FAIR      70  45  40 S6        30.05F
$$
MNZ033>034-036-042>043-049>051-058-059-271600-
   Central Minnesota

CITY           SKY/WX    TMP DP  RH WIND       PRES   REMARKS
ST CLOUD       SUNNY     69  43  38 SW12      30.05F
SAUK CENTRE    FAIR      67  42  41 S12G20    30.04F
PAYNESVILLE    SUNNY     69  40  34 SW10      30.05F
AITKIN         MOSUNNY   66  46  48 SW12      30.02F
PINE RIVER     SUNNY     66  46  48 S8        30.04F
BRAINERD       SUNNY     66  45  46 S10       30.03F
STAPLES        SUNNY     66  43  42 S9        30.01F
LONG PRAIRIE   FAIR      64  43  45 S14G20    30.03F
LITTLE FALLS   SUNNY     68  37  32 S8        30.04F
LITCHFIELD     SUNNY     70  45  40 SW6       30.06F
BUFFALO        SUNNY     67  42  40 S6        30.07F
MAPLE LAKE     SUNNY     69  46  42 S7        30.07S
HUTCHINSON     CLOUDY    69  43  38 S12G17    30.07F
$$
MNZ037-044-045-052-053-271600-
   East Central Minnesota

CITY           SKY/WX    TMP DP  RH WIND       PRES   REMARKS
PRINCETON      SUNNY     72  46  40 SW9G16    30.05F
MORA           SUNNY     64  46  52 SW6       30.07F
CAMBRIDGE      SUNNY     70  50  49 SW9       30.04F
RUSH CITY      SUNNY     68  46  45 W7        30.06F
MOOSE LAKE     SUNNY     68  45  42 W5        30.02F
HINCKLEY       FAIR      68  46  45 SW7       30.06F
CLOQUET        SUNNY     66  39  37 W8        30.03F
MCGREGOR       MOSUNNY   66  45  45 SW8       30.04F
$$
MNZ071>073-080-081-089-090-097-098-271600-
   Southwest Minnesota

CITY           SKY/WX    TMP DP  RH WIND       PRES   REMARKS
MONTEVIDEO     SUNNY     70  45  40 SW12G17   30.02F
GRANITE FALLS  SUNNY     70  47  44 S18       30.04F
CANBY          MOSUNNY   67  42  40 S12G20    30.02F
MARSHALL       MOSUNNY   68  43  40 S16G23    30.03F
REDWOOD FALLS  SUNNY     70  39  32 S16       30.04F
OLIVIA         MOSUNNY   70  45  40 S10       30.04F
PIPESTONE      MOSUNNY   66  43  42 S17G24    30.04S
WINDOM         SUNNY     68  39  34 S13       30.06F
WORTHINGTON    MOSUNNY   64  44  48 S15       30.07F
JACKSON        SUNNY     66  41  39 S13       30.08F
TRACY          MOSUNNY   68  44  42 S14G22    30.04F
SLAYTON        CLOUDY    64  41  43 S14G21    30.06F
$$
MNZ065>067-074>077-082>085-091>093-271600-
   South Central Minnesota

CITY           SKY/WX    TMP DP  RH WIND       PRES   REMARKS
MANKATO        SUNNY     68  46  45 S10       30.08F
NEW ULM        SUNNY     70  37  30 S14       30.06F
ST JAMES       SUNNY     68  43  40 S10       30.08F
FAIRMONT       SUNNY     67  45  45 S15       30.09F
GLENCOE        SUNNY     69  47  45 S13       30.07F
FARIBAULT      SUNNY     68  46  45 S5        30.09F
OWATONNA       SUNNY     68  45  42 SW9       30.09F
WASECA         SUNNY     64  43  45 S8        30.10F
ALBERT LEA     SUNNY     66  43  42 SW5       30.10F
$$
MNZ078>079-086>088-094>096-271600-
   Southeast Minnesota

CITY           SKY/WX    TMP DP  RH WIND       PRES   REMARKS
ROCHESTER      SUNNY     67  43  41 SW12      30.13F
RED WING       SUNNY     68  46  45 SW3       30.08F
STANTON        SUNNY     68  46  44 SW7       30.08F
DODGE CENTER   SUNNY     66  43  42 SW9       30.11F
WINONA         SUNNY     70  46  43 NW7       30.11F
AUSTIN         SUNNY     66  45  45 SW5       30.11F
PRESTON        SUNNY     66  46  47 SW8       30.13F
$$
ABBREVIATIONS USED IN REMARKS
   TC - TEMPERATURES IN CELSIUS
  WCI - WIND CHILL INDEX
   HX - HEAT INDEX
  VSB - VISIBILITY
$$




USA.gov is the U.S. government's official web portal to all federal, state and local government web resources and services.